Waukesha, WI

1:44 PM CST on January 24, 2017 (GMT -0600)
Waukesha County

Weather History for KUES - March, 2012

Change the Weather History Date:

Wednesday, March 21, 2012

  Actual Average Record
Temperature  
Mean Temperature 68 °F -  
Max Temperature 80 °F 43 °F 80 °F (2012)
Min Temperature 57 °F 27 °F 1 °F (1965)
Cooling Degree Days 4    
Growing Degree Days 18 (Base 50)    
Moisture  
Dew Point 51 °F    
Average Humidity 60    
Maximum Humidity 77    
Minimum Humidity 34    
Precipitation  
Precipitation 0.00 in - - ()
Sea Level Pressure  
Sea Level Pressure 30.06 in    
Wind  
Wind Speed 7 mph (SSE)    
Max Wind Speed 16 mph    
Max Gust Speed 23 mph    
Visibility 10 miles    
Events      
Averages and records for this station are not official NWS values.
T = Trace of Precipitation, MM = Missing Value Source: NWS Daily Summary

Daily Weather History Graph

Daily Weather History Graph

Search for Another Location

Airport or City:

Trip Planner

Search our weather history database for the weather conditions in past years. The results will help you decide how hot, cold, wet, or windy it might be!

Date:

Astronomy

Mar. 21, 2012 Rise Set
Actual Time 6:53 AM CDT 7:07 PM CDT
Civil Twilight 6:25 AM CDT 7:35 PM CDT
Nautical Twilight 5:51 AM CDT 8:08 PM CDT
Astronomical Twilight 5:17 AM CDT 8:42 PM CDT
Moon 6:04 AM CDT (3/21) 6:34 PM CDT (3/21)
Length of Visible Light 13h 10m
Length of Day
12h 13m
Waning Crescent, 1% of the Moon is Illuminated
Mar 21
Waning Crescent
Mar 22
New
Mar 30
First Quarter
Apr 6
Full
Apr 13
Last Quarter

Hourly Weather History & Observations

Time (CDT) Temp. Dew Point Humidity Pressure Visibility Wind Dir Wind Speed Gust Speed Precip Events Conditions
12:15 AM 64.4 °F 50.0 °F 59% 30.05 in 10.0 mi SSE 6.9 mph - N/A   Clear
12:35 AM 66.2 °F 50.0 °F 56% 30.04 in 10.0 mi South 5.8 mph - N/A   Clear
12:55 AM 66.2 °F 50.0 °F 56% 30.04 in 10.0 mi SSE 6.9 mph - N/A   Clear
1:15 AM 64.4 °F 50.0 °F 59% 30.04 in 10.0 mi SSE 5.8 mph - N/A   Clear
1:35 AM 64.4 °F 50.0 °F 59% 30.04 in 10.0 mi SSE 4.6 mph - N/A   Clear
1:55 AM 62.6 °F 50.0 °F 63% 30.04 in 10.0 mi SE 5.8 mph - N/A   Clear
2:35 AM 62.6 °F 51.8 °F 68% 30.04 in 10.0 mi SSE 5.8 mph - N/A   Clear
2:55 AM 60.8 °F 51.8 °F 72% 30.04 in 10.0 mi SSE 5.8 mph - N/A   Clear
3:15 AM 62.6 °F 51.8 °F 68% 30.04 in 10.0 mi SSE 4.6 mph - N/A   Clear
3:35 AM 62.6 °F 51.8 °F 68% 30.04 in 10.0 mi SSE 5.8 mph - N/A   Clear
3:55 AM 62.6 °F 51.8 °F 68% 30.04 in 10.0 mi SSE 5.8 mph - N/A   Clear
4:15 AM 62.6 °F 51.8 °F 68% 30.04 in 10.0 mi SSE 6.9 mph - N/A   Clear
4:35 AM 62.6 °F 51.8 °F 68% 30.04 in 10.0 mi SSE 6.9 mph - N/A   Clear
4:55 AM 62.6 °F 51.8 °F 68% 30.04 in 10.0 mi SSE 8.1 mph - N/A   Clear
5:15 AM 62.6 °F 51.8 °F 68% 30.05 in 10.0 mi SSE 8.1 mph - N/A   Clear
5:35 AM 62.6 °F 51.8 °F 68% 30.05 in 10.0 mi SSE 8.1 mph - N/A   Clear
5:45 AM 64.4 °F 53.6 °F 68% 30.06 in 10.0 mi SSE 8.1 mph - N/A   Clear
6:45 AM 62.6 °F 53.6 °F 72% 30.06 in 10.0 mi SE 6.9 mph - N/A   Clear
7:45 AM 62.6 °F 53.6 °F 72% 30.09 in 10.0 mi SSE 8.1 mph - N/A   Clear
8:45 AM 66.2 °F 53.6 °F 64% 30.11 in 10.0 mi SSE 6.9 mph - N/A   Clear
9:45 AM 69.8 °F 55.4 °F 60% 30.11 in 10.0 mi South 12.7 mph - N/A   Clear
10:45 AM 73.4 °F 55.4 °F 53% 30.10 in 10.0 mi South 9.2 mph - N/A   Clear
11:45 AM 78.8 °F 53.6 °F 42% 30.09 in 10.0 mi South 9.2 mph - N/A   Clear
12:45 PM 78.8 °F 53.6 °F 42% 30.07 in 10.0 mi South 9.2 mph - N/A   Scattered Clouds
1:45 PM 80.6 °F 50.0 °F 34% 30.05 in 10.0 mi South 13.8 mph - N/A   Clear
2:45 PM 80.6 °F 50.0 °F 34% 30.03 in 10.0 mi South 10.4 mph - N/A   Scattered Clouds
3:45 PM 80.6 °F 50.0 °F 34% 30.03 in 10.0 mi South 11.5 mph 23.0 mph N/A   Scattered Clouds
4:45 PM 80.6 °F 50.0 °F 34% 30.03 in 10.0 mi South 16.1 mph - N/A   Scattered Clouds
5:45 PM 78.8 °F 48.2 °F 34% 30.03 in 10.0 mi South 16.1 mph - N/A   Scattered Clouds
6:45 PM 75.2 °F 50.0 °F 41% 30.04 in 10.0 mi SE 11.5 mph - N/A   Scattered Clouds
8:45 PM 64.4 °F 51.8 °F 64% 30.06 in 10.0 mi SE 4.6 mph - N/A   Clear
9:15 PM 64.4 °F 51.8 °F 64% 30.07 in 10.0 mi Calm Calm - N/A   Overcast
9:55 PM 62.6 °F 51.8 °F 68% 30.07 in 10.0 mi Calm Calm - N/A   Clear
10:15 PM 60.8 °F 50.0 °F 68% 30.07 in 10.0 mi SE 3.5 mph - N/A   Clear
10:35 PM 60.8 °F 50.0 °F 68% 30.07 in 10.0 mi ESE 5.8 mph - N/A   Clear
10:55 PM 60.8 °F 50.0 °F 68% 30.08 in 10.0 mi Calm Calm - N/A   Clear
11:15 PM 59.0 °F 50.0 °F 72% 30.08 in 10.0 mi Calm Calm - N/A   Clear
11:35 PM 57.2 °F 50.0 °F 77% 30.08 in 10.0 mi Calm Calm - N/A   Clear
11:55 PM 57.2 °F 50.0 °F 77% 30.08 in 10.0 mi South 3.5 mph - N/A   Clear